Regional Weather Roundup
Issued by NWS

Home | Current Version | Previous Version | Graphics & Text | Print | Product List | Glossary On
Versions: 1 2 3 4 5 6 7 8 9 10 11 12 13 14 15 16 17 18 19 20 21 22 23 24 25 26 27 28 29 30 31 32 33 34 35 36 37 38 39 40 41 42 43 44 45 46 47 48 49 50
000
ASUS43 KMPX 060910
RWRMN
WEATHER ROUNDUP FOR MINNESOTA
NATIONAL WEATHER SERVICE TWIN CITIES/CHANHASSEN MN
400 AM CDT MON JUL 06 2015


NOTE: "FAIR" INDICATES FEW OR NO CLOUDS BELOW 12,000 FEET WITH NO
SIGNIFICANT WEATHER AND/OR OBSTRUCTIONS TO VISIBILITY. N/A MEANS
CURRENT SKY AND/OR WEATHER CONDITIONS ARE NOT AVAILABLE.

MNZ060>063-068>070-061000-
   Twin Cities Metro

CITY           SKY/WX    TMP DP  RH WIND       PRES   REMARKS
TWIN CITIES    TSTM      71  70  96 N14       29.78F FOG
ST PAUL        HVY RAIN  69  68  96 NE14      29.79F FOG
CRYSTAL        HVY RAIN  72  69  90 E7        29.80R FOG
BLAINE         RAIN      72  72 100 E13       29.80S
LAKEVILLE      TSTM      70  68  94 N6G16     29.81S
EDEN PRAIRIE   RAIN      71  69  93 N10       29.79S FOG
SOUTH ST PAUL  RAIN      71  69  95 N3        29.80R
LAKE ELMO      TSTM      68  68 100 NE6       29.82S
$$
MNZ001>005-007-008-013>017-022>024-027-028-061000-
   Northwest Minnesota

CITY           SKY/WX    TMP DP  RH WIND       PRES   REMARKS
BEMIDJI        CLOUDY    62  60  95 N3        29.90S FOG
HALLOCK        PTCLDY    55  52  88 N8        30.01R
ROSEAU         MOCLDY    55  52  88 N8        29.98S
WARROAD        PTCLDY    55  52  88 NW7       29.98R FOG
THIEF RVR FALL CLOUDY    61  55  82 N12       29.97R
CROOKSTON      MOCLDY    61  57  88 N15G21    29.96S FOG
FOSSTON          N/A     61  57  88 N12       29.94S FOG
DETROIT LAKES  CLOUDY    64  61  88 N6        29.90F HAZE
MOORHEAD       CLOUDY    64  61  88 N12       29.91S FOG
PARK RAPIDS    CLOUDY    66  61  84 N13       29.87F HAZE
MAHNOMEN       FAIR      62  61  96 N9        29.91S FOG
$$
MNZ006-009>011-018-025>026-061000-
   North Central Minnesota

CITY           SKY/WX    TMP DP  RH WIND       PRES   REMARKS
BAUDETTE       CLOUDY    62  56  80 N10       29.93R HAZE
FLAG ISLAND    MOCLDY    57  50  77 N14       29.95R
INTL FALLS     CLOUDY    58  57  97 NW6       29.88F FOG
WASKISH          N/A     63  61  94 NW8       29.91S FOG
BIG FORK       CLOUDY    61  59  94 CALM      29.89F FOG
LONGVILLE      CLOUDY    64  61  88 N5        29.86F
GRAND RAPIDS   CLOUDY    63  59  88 N9        29.85F
CRANE LAKE       N/A     55  54  94 CALM      29.88S VSB 3/4
COOK           MOCLDY    57  55  94 CALM      29.86F FOG
WALKER         FAIR      63  61  94 N5        29.88F FOG
$$
MNZ012-019>021-037-061000-
   Northeast Minnesota

CITY           SKY/WX    TMP DP  RH WIND       PRES   REMARKS
DULUTH         CLOUDY    66  64  93 N3        29.81F FOG
ELY            PTCLDY    59  57  94 CALM      29.84F
HIBBING        CLOUDY    62  58  86 N6        29.84F
DULUTH HARBOR  CLOUDY    66  64  94 S5        29.81S
SILVER BAY     FOG       64  63  94 CALM      29.79F VSB 1/2
GRAND MARAIS     N/A     57  56  96 CALM      29.78R
G MARAIS ARPRT PTCLDY    63  59  88 NW8       29.83R
$$
MNZ029>031-032-039>041-046>048-054>057-064-061000-
   West Central Minnesota

CITY           SKY/WX    TMP DP  RH WIND       PRES   REMARKS
FERGUS FALLS   CLOUDY    66  63  88 NE6       29.86S
WHEATON        CLOUDY    64  63  94 N10       29.88R FOG
MORRIS         LGT RAIN  68  66  94 N5        29.83S
ALEXANDRIA     CLOUDY    68  65  90 N10       29.86R
ELBOW LAKE     CLOUDY    67  64  87 N9        29.85R
WADENA         DRIZZLE   64  63  94 N8        29.85S
GLENWOOD       LGT RAIN  68  66  94 N8        29.84R
APPLETON       LGT RAIN  70  66  88 N6        29.83R
BENSON         LGT RAIN  70  66  88 NE3       29.83R
ORTONVILLE     CLOUDY    68  64  88 NW10      29.87R
MADISON        RAIN      70  66  88 NW8       29.84R
WILLMAR        LGT RAIN  72  70  94 NE7       29.82S
$$
MNZ033>034-036-042>043-049>051-058-059-061000-
   Central Minnesota

CITY           SKY/WX    TMP DP  RH WIND       PRES   REMARKS
ST CLOUD       CLOUDY    69  68  96 CALM      29.80R
SAUK CENTRE    LGT RAIN  68  66  93 N7        29.82R
PAYNESVILLE    LGT RAIN  66  66  99 NW3       29.82S
AITKIN         CLOUDY    64  59  82 N12G17    29.80F
PINE RIVER       N/A     64  61  88 N7        29.88F
BRAINERD       CLOUDY    66  63  90 N13       29.82F
STAPLES        CLOUDY    64  61  88 N8        29.84S
LONG PRAIRIE   MOCLDY    68  64  88 N7        29.83S
LITTLE FALLS   CLOUDY    64  64 100 CALM      29.77S
LITCHFIELD     LGT RAIN  72  72 100 E5        29.80F
BUFFALO        RAIN      69  67  92 S3        29.83R
MAPLE LAKE     LGT RAIN  70  69  97 S5        29.83R
$$
MNZ037-044-045-052-053-061000-
   East Central Minnesota

CITY           SKY/WX    TMP DP  RH WIND       PRES   REMARKS
PRINCETON      LGT RAIN  70  68  94 CALM      29.79S
MORA           CLOUDY    64  64 100 CALM      29.79F
CAMBRIDGE      DRIZZLE   70  63  78 E12       29.76F
MOOSE LAKE     CLOUDY    64  64 100 CALM      29.79F FOG
HINCKLEY       CLOUDY    68  68 100 E7        29.79F
CLOQUET        CLOUDY    64  63  94 CALM      29.81F FOG
MCGREGOR       CLOUDY    64  64 100 N12       29.81F
$$
MNZ071>073-080-081-089-090-097-098-061000-
   Southwest Minnesota

CITY           SKY/WX    TMP DP  RH WIND       PRES   REMARKS
GRANITE FALLS  LGT RAIN  69  68  97 NW5       29.84R
CANBY          LGT RAIN  68  66  93 NW7       29.85F
MARSHALL       CLOUDY    70  64  83 N10       29.81S
REDWOOD FALLS  RAIN      70  69  97 N3        29.79F FOG
OLIVIA         RAIN      68  64  88 CALM      29.81R
PIPESTONE      HVY RAIN  68  66  94 NW14      29.87R
WINDOM         RAIN      70  68  94 N3        29.81F
WORTHINGTON    CLOUDY    68  64  88 N6        29.84S
JACKSON        TSTM      72  70  94 NW8       29.84R
TRACY          CLOUDY    70  68  94 N3        29.82F
SLAYTON        HVY RAIN  68  68 100 CALM      29.84F
$$
MNZ065>067-074>077-082>085-091>093-061000-
   South Central Minnesota

CITY           SKY/WX    TMP DP  RH WIND       PRES   REMARKS
MANKATO        CLOUDY    72  68  88 NW5       29.80R
NEW ULM        TSTM      70  70 100 NE6       29.80F
ST JAMES       RAIN      72  72 100 N9        29.81S
FAIRMONT       CLOUDY    72  64  78 W8        29.81S
GLENCOE        RAIN      71  70  98 NE3       29.79F
FARIBAULT      TSTM      72  70  94 N9G23     29.81R VSB 1
OWATONNA       TSTM      75  68  78 S18G29    29.82R
WASECA         TSTM      72  70  94 W9        29.83R
ALBERT LEA     CLOUDY    75  70  83 S9G20     29.78R
$$
MNZ078>079-086>088-094>096-061000-
   Southeast Minnesota

CITY           SKY/WX    TMP DP  RH WIND       PRES   REMARKS
ROCHESTER      CLOUDY    73  68  84 S17G25    29.81F
RED WING       CLOUDY    73  70  88 SE8       29.77R
STANTON        CLOUDY    73  68  83 N17G26    29.78R
DODGE CENTER   CLOUDY    75  70  83 S22       29.80R
WINONA         CLOUDY    73  68  83 S7G16     29.81F
AUSTIN         CLOUDY    75  70  83 S14G23    29.79F
PRESTON        CLOUDY    71  67  87 S15G22    29.83F
$$
ABBREVIATIONS USED IN REMARKS
   TC - TEMPERATURES IN CELSIUS
  WCI - WIND CHILL INDEX
   HX - HEAT INDEX
  VSB - VISIBILITY
$$



USA.gov is the U.S. government's official web portal to all federal, state and local government web resources and services.